Satellite: IO-26
Catalog number: 22826
Epoch time:      09106.75129463
Element set:     945
Inclination:      098.4248 deg
RA of node:       062.9027 deg
Eccentricity:    0.0009963
Arg of perigee:   081.6020 deg
Mean anomaly:     278.6291 deg
Mean motion:   14.29514489 rev/day
Decay rate:        7.0e-08 rev/day^2
Epoch rev:           81123
Checksum:              320

Satellite: GO-32
Catalog number: 25397
Epoch time:      09105.78114028
Element set:     869
Inclination:      098.3306 deg
RA of node:       131.4515 deg
Eccentricity:    0.0002212
Arg of perigee:   082.4939 deg
Mean anomaly:     277.6485 deg
Mean motion:   14.23156458 rev/day
Decay rate:      -1.82e-06 rev/day^2
Epoch rev:           55925
Checksum:              317

Satellite: NO-44
Catalog number: 26931
Epoch time:      09105.73781128
Element set:     145
Inclination:      067.0525 deg
RA of node:       225.2285 deg
Eccentricity:    0.0005241
Arg of perigee:   267.4322 deg
Mean anomaly:     092.6169 deg
Mean motion:   14.29553169 rev/day
Decay rate:       -2.3e-07 rev/day^2
Epoch rev:           39365
Checksum:              301

Satellite: SO-50
Catalog number: 27607
Epoch time:      09106.68010540
Element set:     862
Inclination:      064.5584 deg
RA of node:       211.8939 deg
Eccentricity:    0.0073951
Arg of perigee:   219.0903 deg
Mean anomaly:     140.4841 deg
Mean motion:   14.71428374 rev/day
Decay rate:        9.6e-07 rev/day^2
Epoch rev:           33962
Checksum:              309

Satellite: CO-55
Catalog number: 27844
Epoch time:      09105.66102611
Element set:     557
Inclination:      098.7149 deg
RA of node:       115.7080 deg
Eccentricity:    0.0009571
Arg of perigee:   329.8103 deg
Mean anomaly:     030.2512 deg
Mean motion:   14.20631573 rev/day
Decay rate:        2.4e-07 rev/day^2
Epoch rev:           30038
Checksum:              274

Satellite: CO-57
Catalog number: 27848
Epoch time:      09105.55941978
Element set:    0504
Inclination:      098.7169 deg
RA of node:       114.6700 deg
Eccentricity:    0.0009557
Arg of perigee:   333.4686 deg
Mean anomaly:     026.6005 deg
Mean motion:   14.20434598 rev/day
Decay rate:        1.9e-07 rev/day^2
Epoch rev:           30033
Checksum:              320

Satellite: AO-51
Catalog number: 28375
Epoch time:      09105.66391970
Element set:     364
Inclination:      098.0551 deg
RA of node:       118.9086 deg
Eccentricity:    0.0084159
Arg of perigee:   315.8041 deg
Mean anomaly:     043.6444 deg
Mean motion:   14.40638450 rev/day
Decay rate:        3.0e-08 rev/day^2
Epoch rev:           25195
Checksum:              307

Satellite: CO-56
Catalog number: 28941
Epoch time:      09106.70321107
Element set:     997
Inclination:      098.1382 deg
RA of node:       269.9530 deg
Eccentricity:    0.0101140
Arg of perigee:   003.9264 deg
Mean anomaly:     356.2758 deg
Mean motion:   15.78259332 rev/day
Decay rate:     5.1938e-04 rev/day^2
Epoch rev:           17753
Checksum:              331

Satellite: CP3
Catalog number: 31128
Epoch time:      09105.16835848
Element set:    0607
Inclination:      097.9926 deg
RA of node:       161.1500 deg
Eccentricity:    0.0103711
Arg of perigee:   120.3435 deg
Mean anomaly:     240.8117 deg
Mean motion:   14.52033178 rev/day
Decay rate:       -4.6e-07 rev/day^2
Epoch rev:           10575
Checksum:              272

Satellite: CP4
Catalog number: 31132
Epoch time:      09105.71265469
Element set:    0593
Inclination:      098.0002 deg
RA of node:       165.3613 deg
Eccentricity:    0.0086844
Arg of perigee:   107.8714 deg
Mean anomaly:     253.1961 deg
Mean motion:   14.55197270 rev/day
Decay rate:       -7.9e-07 rev/day^2
Epoch rev:           10594
Checksum:              302

Satellite: CO-65
Catalog number: 32785
Epoch time:      09106.73006716
Element set:     341
Inclination:      097.9512 deg
RA of node:       171.1897 deg
Eccentricity:    0.0013840
Arg of perigee:   229.9173 deg
Mean anomaly:     130.0825 deg
Mean motion:   14.81467809 rev/day
Decay rate:       -3.8e-07 rev/day^2
Epoch rev:            5234
Checksum:              310

Satellite: SOHLA-1
Catalog number: 33496
Epoch time:      09106.82937867
Element set:     256
Inclination:      098.0321 deg
RA of node:       217.1146 deg
Eccentricity:    0.0007847
Arg of perigee:   114.2048 deg
Mean anomaly:     245.9973 deg
Mean motion:   14.69429387 rev/day
Decay rate:        4.7e-07 rev/day^2
Epoch rev:            1226
Checksum:              321

/EX
SB KEPS @ AMSAT  $ORB09106.W
Orbital Elements  09106.WEATHER

HR AMSAT ORBITAL ELEMENTS FOR WEATHER SATELLITES
FROM WA5QGD FORT WORTH,TX April 16, 2009
Send Subscribe/unsubscribe to KEPS at 
http://www.amsat.org/mailman/listinfo/keps
BID: ORB09106.W
TO ALL RADIO AMATEURS BT

Satellite: NOAA-10
Catalog number: 16969
Epoch time:      09106.47101086
Element set:     574
Inclination:      098.6957 deg
RA of node:       133.4403 deg
Eccentricity:    0.0012780
Arg of perigee:   020.8970 deg
Mean anomaly:     339.2731 deg
Mean motion:   14.27383964 rev/day
Decay rate:       -3.3e-07 rev/day^2
Epoch rev:           17470
Checksum:              309

